Weather History for KDSM - July, 2014

Change the Weather History Date:

Saturday, July 19, 2014

  Actual Average Record
Temperature  
Mean Temperature 74 °F 76 °F  
Max Temperature 83 °F 86 °F 109 °F (1934)
Min Temperature 64 °F 67 °F 52 °F (1947)
Degree Days  
Heating Degree Days 0 0  
Month to date heating degree days 2 0  
Since 1 June heating degree days 2 17  
Since 1 July heating degree days 2 0  
Cooling Degree Days 9 11  
Month to date cooling degree days 134 216  
Year to date cooling degree days 521 513  
Since 1 June cooling degree days 390 437  
Growing Degree Days 23 (Base 50)    
Moisture  
Dew Point 60 °F    
Average Humidity 66    
Maximum Humidity 84    
Minimum Humidity 47    
Precipitation  
Precipitation 0.00 in 0.14 in 4.32 in (1904)
Month to date precipitation 2.26 2.86  
Year to date precipitation 20.90 20.98  
Snow  
Snow 0.00 in 0.00 in - ()
Month to date snowfall 0.0 0.0  
Since 1 June snowfall 0.0 0.0  
Since 1 July snowfall 0.0 0.0  
Snow Depth 0.00 in    
Sea Level Pressure  
Sea Level Pressure 29.98 in    
Wind  
Wind Speed 9 mph (South)    
Max Wind Speed 17 mph    
Max Gust Speed 24 mph    
Visibility 10 miles    
Events      
T = Trace of Precipitation, MM = Missing Value Source: NWS Daily Summary

Daily Weather History Graph

Daily Weather History Graph

Search for Another Location

Airport or City:

Trip Planner

Search our weather history database for the weather conditions in past years. The results will help you decide how hot, cold, wet, or windy it might be!

Date:

Astronomy

Jul. 19, 2014 Rise Set
Actual Time 5:57 AM CDT 8:44 PM CDT
Civil Twilight 5:24 AM CDT 9:16 PM CDT
Nautical Twilight 4:43 AM CDT 9:57 PM CDT
Astronomical Twilight 3:56 AM CDT 10:44 PM CDT
Moon 12:35 AM CDT (7/19) 2:24 PM CDT (7/19)
Length of Visible Light 15h 52m
Length of Day
14h 47m
Last Quarter, 43% of the Moon is Illuminated
Jul 19
Last Quarter
Jul 26
New
Aug 3
First Quarter
Aug 10
Full
Aug 17
Last Quarter

Hourly Weather History & Observations

Time (CDT) Temp. Heat Index Dew Point Humidity Pressure Visibility Wind Dir Wind Speed Gust Speed Precip Events Conditions
12:54 AM 68.0 °F - 60.1 °F 76% 30.02 in 10.0 mi South 5.8 mph - N/A   Overcast
1:54 AM 66.9 °F - 60.1 °F 79% 30.01 in 10.0 mi South 6.9 mph - N/A   Mostly Cloudy
2:54 AM 66.9 °F - 60.1 °F 79% 30.00 in 10.0 mi SSE 6.9 mph - N/A   Overcast
3:54 AM 66.0 °F - 60.1 °F 81% 29.99 in 10.0 mi South 6.9 mph - N/A   Overcast
4:54 AM 66.9 °F - 59.0 °F 76% 29.99 in 10.0 mi South 5.8 mph - N/A   Overcast
5:54 AM 64.9 °F - 59.0 °F 81% 30.00 in 10.0 mi South 4.6 mph - N/A   Mostly Cloudy
6:54 AM 64.0 °F - 57.9 °F 80% 30.01 in 10.0 mi South 5.8 mph - N/A   Scattered Clouds
7:54 AM 66.0 °F - 59.0 °F 78% 30.02 in 10.0 mi South 5.8 mph - N/A   Overcast
8:54 AM 70.0 °F - 60.1 °F 71% 30.03 in 10.0 mi South 8.1 mph - N/A   Partly Cloudy
9:54 AM 73.9 °F - 60.1 °F 62% 30.03 in 10.0 mi SSW 6.9 mph - N/A   Partly Cloudy
10:54 AM 78.1 °F - 60.1 °F 54% 30.01 in 10.0 mi South 10.4 mph - N/A   Partly Cloudy
11:54 AM 79.0 °F - 59.0 °F 50% 30.01 in 10.0 mi SW 9.2 mph - N/A   Mostly Cloudy
12:54 PM 79.0 °F - 59.0 °F 50% 29.99 in 10.0 mi SSW 11.5 mph - N/A   Overcast
1:54 PM 81.0 °F 81.6 °F 60.1 °F 49% 29.97 in 10.0 mi South 11.5 mph - N/A   Partly Cloudy
2:54 PM 81.0 °F 81.6 °F 60.1 °F 49% 29.95 in 9.0 mi South 13.8 mph 21.9 mph N/A   Scattered Clouds
3:54 PM 81.0 °F 81.7 °F 61.0 °F 50% 29.94 in 10.0 mi South 13.8 mph 21.9 mph N/A   Scattered Clouds
4:54 PM 82.0 °F 82.7 °F 61.0 °F 49% 29.94 in 10.0 mi South 12.7 mph - N/A   Scattered Clouds
5:54 PM 81.0 °F 81.7 °F 61.0 °F 50% 29.94 in 10.0 mi SSW 12.7 mph - N/A   Scattered Clouds
6:54 PM 79.0 °F - 62.1 °F 56% 29.94 in 10.0 mi South 12.7 mph - N/A   Scattered Clouds
7:54 PM 78.1 °F - 62.1 °F 58% 29.94 in 10.0 mi South 9.2 mph - N/A   Scattered Clouds
8:54 PM 75.0 °F - 63.0 °F 66% 29.95 in 10.0 mi South 6.9 mph - N/A   Partly Cloudy
9:54 PM 71.6 °F - 62.6 °F 73% 29.97 in 10.0 mi South 5.8 mph - N/A   Partly Cloudy
10:54 PM 71.1 °F - 62.1 °F 73% 29.96 in 10.0 mi South 6.9 mph - N/A   Scattered Clouds
11:54 PM 70.0 °F - 62.1 °F 76% 29.95 in 10.0 mi South 6.9 mph - N/A   Partly Cloudy